• In Portugal
  • List of Countries
  • For 7 days
  • Water Temperature
  • Satellite Maps
  • Weather Map
  • Weather Widgets
  • user-avatar
    Login

    Hourly Weather Halhgol

    Today, 18 June, Monday

    Time Temperature Precipitation Wind Pressure Humidity
    00:00 +13°C° 2.4 mm 5 mps 692 mmHg 88%
    01:00 +13°C° 2.4 mm 4 mps 692 mmHg 89%
    02:00 +13°C° 2.4 mm 3 mps 692 mmHg 91%
    03:00 +13°C° 0.1 mm 3 mps 692 mmHg 91%
    04:00 +12°C° 0.1 mm 4 mps 692 mmHg 91%
    05:00 +12°C° 0.1 mm 4 mps 692 mmHg 91%
    06:00 +13°C° 0 mm 4 mps 692 mmHg 89%
    07:00 +14°C° 0 mm 4 mps 692 mmHg 86%
    08:00 +15°C° 0 mm 4 mps 692 mmHg 84%
    09:00 +16°C° 0.2 mm 5 mps 692 mmHg 76%
    10:00 +19°C° 0.2 mm 5 mps 692 mmHg 68%
    11:00 +20°C° 0.2 mm 6 mps 693 mmHg 60%
    12:00 +21°C° 0.7 mm 6 mps 693 mmHg 57%
    13:00 +21°C° 0.7 mm 6 mps 693 mmHg 53%
    14:00 +22°C° 0.7 mm 7 mps 692 mmHg 50%
    15:00 +21°C° 0.5 mm 6 mps 693 mmHg 51%
    16:00 +21°C° 0.5 mm 6 mps 693 mmHg 53%
    17:00 +20°C° 0.5 mm 5 mps 693 mmHg 55%
    18:00 +19°C° 0.5 mm 5 mps 693 mmHg 59%
    19:00 +18°C° 0.5 mm 4 mps 693 mmHg 63%
    20:00 +17°C° 0.5 mm 3 mps 693 mmHg 67%
    21:00 +16°C° 0.7 mm 3 mps 693 mmHg 70%
    22:00 +16°C° 0.7 mm 3 mps 693 mmHg 74%
    23:00 +14°C° 0.7 mm 3 mps 693 mmHg 77%

    Tomorrow, 19 June, Tuesday

    Time Temperature Precipitation Wind Pressure Humidity
    00:00 +13°C° 0.4 mm 3 mps 693 mmHg 79%
    01:00 +13°C° 0.4 mm 3 mps 693 mmHg 82%
    02:00 +13°C° 0.4 mm 3 mps 693 mmHg 84%
    03:00 +13°C° 0.3 mm 3 mps 693 mmHg 85%
    04:00 +13°C° 0.3 mm 3 mps 693 mmHg 86%
    05:00 +12°C° 0.3 mm 3 mps 693 mmHg 88%
    06:00 +14°C° 0.2 mm 4 mps 693 mmHg 82%
    07:00 +15°C° 0.2 mm 5 mps 694 mmHg 77%
    08:00 +16°C° 0.2 mm 5 mps 694 mmHg 72%
    09:00 +19°C° 0 mm 6 mps 694 mmHg 64%
    10:00 +20°C° 0 mm 7 mps 695 mmHg 57%
    11:00 +21°C° 0 mm 7 mps 695 mmHg 50%
    12:00 +21°C° 0.1 mm 7 mps 695 mmHg 47%
    13:00 +22°C° 0.1 mm 7 mps 695 mmHg 44%
    14:00 +22°C° 0.1 mm 7 mps 695 mmHg 41%
    15:00 +22°C° 0.1 mm 6 mps 695 mmHg 41%
    16:00 +22°C° 0.1 mm 6 mps 695 mmHg 42%
    17:00 +22°C° 0.1 mm 6 mps 695 mmHg 42%
    18:00 +20°C° 0 mm 5 mps 695 mmHg 47%
    19:00 +19°C° 0 mm 4 mps 695 mmHg 52%
    20:00 +18°C° 0 mm 3 mps 695 mmHg 57%
    21:00 +17°C° 0 mm 3 mps 695 mmHg 57%
    22:00 +17°C° 0 mm 3 mps 695 mmHg 57%
    23:00 +16°C° 0 mm 3 mps 694 mmHg 57%

    Day after tomorrow, 20 June, Wednesday

    Time Temperature Precipitation Wind Pressure Humidity
    00:00 +16°C° 0 mm 3 mps 694 mmHg 58%
    01:00 +16°C° 0 mm 3 mps 694 mmHg 59%
    02:00 +16°C° 0 mm 3 mps 694 mmHg 60%
    03:00 +14°C° 0.1 mm 3 mps 694 mmHg 62%
    04:00 +15°C° 0.1 mm 2 mps 694 mmHg 65%
    05:00 +14°C° 0.1 mm 2 mps 694 mmHg 68%
    06:00 +16°C° 0 mm 2 mps 694 mmHg 62%
    07:00 +18°C° 0 mm 2 mps 694 mmHg 57%
    08:00 +20°C° 0 mm 2 mps 695 mmHg 51%
    09:00 +21°C° 0 mm 2 mps 694 mmHg 48%
    10:00 +22°C° 0 mm 3 mps 694 mmHg 44%
    11:00 +24°C° 0 mm 3 mps 694 mmHg 41%
    12:00 +25°C° 0 mm 3 mps 694 mmHg 38%
    13:00 +26°C° 0 mm 3 mps 693 mmHg 35%
    14:00 +27°C° 0 mm 3 mps 693 mmHg 32%
    15:00 +27°C° 0 mm 3 mps 692 mmHg 33%
    16:00 +27°C° 0 mm 3 mps 692 mmHg 34%
    17:00 +27°C° 0 mm 2 mps 691 mmHg 35%
    18:00 +25°C° 0 mm 2 mps 691 mmHg 40%
    19:00 +24°C° 0 mm 2 mps 691 mmHg 45%
    20:00 +21°C° 0 mm 2 mps 691 mmHg 50%
    21:00 +20°C° 0.5 mm 3 mps 691 mmHg 60%
    22:00 +18°C° 0.5 mm 3 mps 691 mmHg 69%
    23:00 +15°C° 0.5 mm 4 mps 691 mmHg 78%

    21 June, Thursday

    Time Temperature Precipitation Wind Pressure Humidity
    00:00 +15°C° 0 mm 4 mps 691 mmHg 80%
    01:00 +14°C° 0 mm 4 mps 691 mmHg 83%
    02:00 +14°C° 0 mm 3 mps 691 mmHg 85%
    03:00 +13°C° 0 mm 4 mps 691 mmHg 87%
    04:00 +12°C° 0 mm 4 mps 691 mmHg 89%
    05:00 +11°C° 0 mm 4 mps 691 mmHg 90%
    06:00 +12°C° 0 mm 5 mps 692 mmHg 84%
    07:00 +13°C° 0 mm 5 mps 692 mmHg 78%
    08:00 +14°C° 0 mm 5 mps 693 mmHg 72%
    09:00 +16°C° 0 mm 5 mps 693 mmHg 66%
    10:00 +17°C° 0 mm 5 mps 694 mmHg 61%
    11:00 +20°C° 0 mm 5 mps 694 mmHg 56%
    12:00 +21°C° 0 mm 5 mps 694 mmHg 53%
    13:00 +22°C° 0 mm 5 mps 694 mmHg 50%
    14:00 +23°C° 0 mm 5 mps 694 mmHg 47%
    15:00 +23°C° 0 mm 5 mps 694 mmHg 47%
    16:00 +23°C° 0 mm 4 mps 694 mmHg 47%
    17:00 +23°C° 0 mm 4 mps 694 mmHg 48%
    18:00 +22°C° 0 mm 3 mps 694 mmHg 53%
    19:00 +20°C° 0 mm 3 mps 694 mmHg 59%
    20:00 +19°C° 0 mm 2 mps 695 mmHg 65%
    21:00 +18°C° 0 mm 2 mps 695 mmHg 67%
    22:00 +18°C° 0 mm 1 mps 695 mmHg 70%
    23:00 +16°C° 0 mm 1 mps 695 mmHg 72%

    22 June, Friday

    Time Temperature Precipitation Wind Pressure Humidity
    00:00 +16°C° 0 mm 1 mps 695 mmHg 73%
    01:00 +16°C° 0 mm 1 mps 695 mmHg 75%
    02:00 +16°C° 0 mm 1 mps 695 mmHg 76%
    03:00 +16°C° 0 mm 1 mps 695 mmHg 76%
    04:00 +16°C° 0 mm 1 mps 695 mmHg 76%
    05:00 +16°C° 0 mm 1 mps 695 mmHg 76%
    06:00 +19°C° 0 mm 1 mps 696 mmHg 69%
    07:00 +19°C° 0 mm 2 mps 696 mmHg 61%
    08:00 +21°C° 0 mm 2 mps 696 mmHg 54%
    09:00 +22°C° 0 mm 3 mps 696 mmHg 49%
    10:00 +25°C° 0 mm 4 mps 696 mmHg 43%
    11:00 +26°C° 0 mm 5 mps 696 mmHg 38%
    12:00 +26°C° 0 mm 5 mps 696 mmHg 37%
    13:00 +26°C° 0 mm 5 mps 696 mmHg 36%
    14:00 +27°C° 0 mm 5 mps 696 mmHg 35%
    15:00 +27°C° 0 mm 5 mps 696 mmHg 35%
    16:00 +27°C° 0 mm 5 mps 696 mmHg 36%
    17:00 +26°C° 0 mm 4 mps 696 mmHg 37%
    18:00 +25°C° 0 mm 4 mps 696 mmHg 43%
    19:00 +22°C° 0 mm 3 mps 696 mmHg 50%
    20:00 +20°C° 0 mm 3 mps 696 mmHg 56%
    21:00 +19°C° 0 mm 2 mps 696 mmHg 58%
    22:00 +18°C° 0 mm 2 mps 696 mmHg 61%
    23:00 +18°C° 0 mm 1 mps 696 mmHg 63%

    23 June, Saturday

    Time Temperature Precipitation Wind Pressure Humidity
    00:00 +18°C° 0 mm 1 mps 696 mmHg 64%
    01:00 +18°C° 0 mm 1 mps 696 mmHg 65%
    02:00 +16°C° 0 mm 1 mps 696 mmHg 66%
    03:00 +16°C° 0 mm 1 mps 696 mmHg 66%
    04:00 +16°C° 0 mm 1 mps 697 mmHg 67%
    05:00 +16°C° 0 mm 1 mps 697 mmHg 67%
    06:00 +19°C° 0 mm 1 mps 697 mmHg 62%
    07:00 +21°C° 0 mm 1 mps 698 mmHg 56%
    08:00 +22°C° 0 mm 1 mps 698 mmHg 51%
    09:00 +24°C° 0 mm 1 mps 698 mmHg 46%
    10:00 +25°C° 0 mm 1 mps 698 mmHg 42%
    11:00 +27°C° 0 mm 1 mps 698 mmHg 37%
    12:00 +27°C° 0 mm 2 mps 698 mmHg 36%
    13:00 +28°C° 0 mm 2 mps 698 mmHg 35%
    14:00 +28°C° 0 mm 2 mps 697 mmHg 34%
    15:00 +28°C° 0 mm 2 mps 697 mmHg 34%
    16:00 +28°C° 0 mm 2 mps 697 mmHg 34%
    17:00 +28°C° 0 mm 2 mps 697 mmHg 34%
    18:00 +26°C° 0 mm 3 mps 697 mmHg 41%
    19:00 +25°C° 0 mm 3 mps 697 mmHg 47%
    20:00 +22°C° 0 mm 3 mps 697 mmHg 54%
    21:00 +21°C° 0 mm 3 mps 697 mmHg 57%
    22:00 +20°C° 0 mm 4 mps 697 mmHg 60%
    23:00 +19°C° 0 mm 4 mps 697 mmHg 62%
    Show more